Вернуться в каталог

CZ-4B R/B

АктивенPO
NORAD 43656·ROCKET BODY·🇨🇳 China

Запущен Oct 24, 2018 с Taiyuan Satellite Launch Center

Loading…

Ближайшие Пролёты (ближайшие 24 часа)

TLE

СвежийSource: Space-Track

Эпоха: Sep 14, 2026, 05:01 UTC

1 43656U 18081B   26257.20948058  .00000155  00000-0  63123-4 0  9990
2 43656  99.3643 182.2070 0204950  10.5679 349.9712 14.31891093412043

Отслеживайте CZ-4B R/B в реальном времени с AllMySat

Download on the App Store